Regional Weather Roundup
Issued by NWS

Home | Current Version | Previous Version | Text Only | Print | Product List | Glossary Off
Versions: 1 2 3 4 5 6 7 8 9 10 11 12 13 14 15 16 17 18 19 20 21 22 23 24 25 26 27 28 29 30 31 32 33 34 35 36 37 38 39 40 41 42 43 44 45 46 47 48 49 50

000
ASUS45 KBOI 080010
RWRID

IDAHO REGIONAL WEATHER ROUNDUP
NATIONAL WEATHER SERVICE BOISE ID
500 PM MST SUN FEB 07 2016

NOTE: "FAIR" INDICATES FEW OR NO CLOUDS BELOW 12000 FEET
WITH NO SIGNIFICANT WEATHER AND/OR OBSTRUCTIONS TO VISIBILITY

IDZ012-014-080100-
SOUTHWEST IDAHO


CITY           SKY/WX    TMP DP  RH WIND       PRES   REMARKS
BOISE          CLEAR     47  36  65 NW10      30.61R
CALDWELL       CLEAR     48  37  65 NW9       30.63R
MOUNTAIN HOME  CLEAR     49  47  91 NW9       30.59R
$$

IDZ016-017-080100-
SOUTHCENTRAL IDAHO


CITY           SKY/WX    TMP DP  RH WIND       PRES   REMARKS
BURLEY         PTCLDY    38  31  76 N6        30.57R WCI  33
JEROME         PTCLDY    34  28  79 NE5       30.58S WCI  30
TWIN FALLS     PTCLDY    41  35  79 N3        30.57S
$$

IDZ019>023-080100-
SOUTHEAST IDAHO


CITY           SKY/WX    TMP DP  RH WIND       PRES   REMARKS
IDAHO FALLS    CLOUDY    23  20  88 N8        30.61R WCI  14
POCATELLO      CLOUDY    34  26  72 N3        30.60R
REXBURG        CLOUDY    25  23  92 CALM      30.60R FOG
$$

IDZ006-010-011-018-031-032-080100-
CENTRAL IDAHO MOUNTAINS


CITY           SKY/WX    TMP DP  RH WIND       PRES   REMARKS
MCCALL         CLEAR     35  23  61 CALM      30.57R
HAILEY         PTCLDY    28  19  69 SE6       30.55S WCI  22
STANLEY          N/A     34  14  43 CALM      30.56R
SALMON         CLOUDY    27  16  63 CALM      30.61R
CHALLIS        CLEAR     28  17  63 CALM      30.57R
$$

IDZ002-004-006-007-026-080100-
NORTHERN IDAHO


CITY           SKY/WX    TMP DP  RH WIND       PRES   REMARKS
LEWISTON       PTCLDY    47  32  56 CALM      30.61S
LOWELL           N/A     41  36  82 CALM      30.64R
COEUR D`ALENE  CLOUDY    43  28  56 N5        30.58S
MULLAN PASS    CLOUDY    29  22  75 W3        30.53R
$$



USA.gov is the U.S. government's official web portal to all federal, state and local government web resources and services.